sat.trackr.live / text

‹ back to catalog

STARLINK-5239

NORAD 54183 · 2022-141AC

PAYLOAD ACTIVE UNKNOWN

§ Identity

Operator
Country
US
Launch date
2022-10-28
Launch site
AFWTR
Launch vehicle
Mass (kg)
RCS (m²)

Purposes: comms

External: N2YO · Heavens-Above · Gunter

§ Orbital elements

Epoch: 2026-09-20T07:29:30.478848Z

Period
93.85 min
Inclination
53.1599°
Eccentricity
0.0001293
Mean motion
15.34388304 rev/d
Perigee alt
461.9 km
Apogee alt
463.6 km
Semi-major
6,840.9 km
B*
2.2751e-5
RAAN
194.7063°
Arg perigee
88.4333°
Mean anomaly
271.6817°
Rev number
21,545

§ Raw data

STARLINK-52391 54183U 22141AC  26263.31215832  .00000392  00000+0  22751-4 0  99992 54183  53.1599 194.7063 0001293  88.4333 271.6817 15.34388304215457

JSON: /api/v1/satellites/54183 · /tle

For live sub-satellite position, see the globe view (requires WebGL).

§ Visibility from observer

Set your observer location to see the next 7 days of passes ≥ 10°. The values pass through the URL so the page stays shareable.

No JS? Fill the form by hand. The geolocation button needs JavaScript.